Погода в Каменном Заделье

Россия / Удмуртская Республика     57°56′16″N   53°12′53″E
темп.,
°C
ветер,
м/с
пор.,
м/с
влажн.,
%
обл.,
%
осадки,
мм/ч
давл.,
гПа
погр.,
м
16 января, вс
вс1601:00−11с379382 0.1 982388
04:00−12ссз1497100 0.2 984101
07:00−13сз129892 0.1 98667
10:00−11сз389597 0.2 988398
13:00−10сз3791100 0.2 990634
16:00−11сз4889100 0.3 992535
19:00−12сз41092100 0.1 993558
22:00−11зсз399498 0.2 995492
17 января, пн
пн1701:00−12зсз4995100 0.1 996414
04:00−15з389895 0.2 999181
07:00−21юз1210083 0.0 100022
10:00−15ю31196100 0.1 999284
13:00−9ююз51393100 0.8 997606
16:00−8ююз51392100 1.4 997639
19:00−8ююз51490100 0.1 998602
22:00−9ююз51490100 0.1 999598
18 января, вт
вт1801:00−10ю51491100 0.0 1000572
04:00−9ююз51491100 0.1 1001647
07:00−9ю51392100 0.3 1001682
10:00−8ю51393100 0.6 1003672
13:00−6ю41291100 0.4 1004641
16:00−5ю41294100 0.8 1005640
19:00−4ю41295100 0.5 1006631
22:00−3ююз41295100 1.2 1007662
19 января, ср
ср1901:00−3ююз41294100 0.4 1009601
04:00−2ююз41293100 0.8 1010644
07:00−2юз41091100 0.2 1012829
10:00−3ююз41193100 0.3 1014623
13:00−2юз41092100 0.2 1016603
16:00−3ююз3994100 0.3 1017779
19:00−2юз4887100 0.1 1019589
22:00−4юз4989100 0.1 1020510
20 января, чт
чт2001:00−4ююз398899 0.0 1021459
04:00−4ююз399489 0.1 1022444
07:00−7ю279796 0.1 1023214
10:00−11ююв269881 0.1 1024121
13:00−6ююз2694100 0.1 1024289
16:00−8ю249784 0.2 102470
19:00−12ююв269876 0.0 102594
22:00−14ююв239984 0.1 102644